Вернуться в каталог

STARLINK-32257

АктивенСвязьVLEO
NORAD 62171·PAYLOAD·🇺🇸 United States

Запущен Nov 30, 2024 с Vandenberg Space Force Base

Loading…

Ближайшие Пролёты (ближайшие 24 часа)

TLE

СвежийSource: CelesTrak SupGP

Эпоха: Sep 15, 2026, 03:51 UTC

1 62171C 24225J   26258.16090278  .00000723  00000+0  60623-4 0  2588
2 62171  70.0018  46.5871 0002675 269.1928 305.6046 14.98322315    16

Отслеживайте STARLINK-32257 в реальном времени с AllMySat

Download on the App Store